TimeEST,TemperatureF,Dew PointF,Humidity,Sea Level PressureIn,VisibilityMPH,Wind Direction,Wind SpeedMPH,Gust SpeedMPH,PrecipitationIn,Events,Conditions,WindDirDegrees,DateUTC
12:53 AM,36.0,19.0,50,29.96,10.0,West,6.9,-,N/A,,Clear,270,2013-01-05 05:53:00
1:53 AM,35.1,19.0,52,29.99,10.0,West,8.1,-,N/A,,Clear,270,2013-01-05 06:53:00
2:53 AM,35.1,19.0,52,30.01,10.0,Variable,4.6,-,N/A,,Clear,0,2013-01-05 07:53:00
3:53 AM,35.1,19.0,52,30.04,10.0,WSW,6.9,-,N/A,,Scattered Clouds,250,2013-01-05 08:53:00
4:53 AM,35.1,19.0,52,30.04,10.0,SW,8.1,-,N/A,,Overcast,230,2013-01-05 09:53:00
5:53 AM,36.0,21.9,57,30.08,10.0,WSW,10.4,-,N/A,,Mostly Cloudy,240,2013-01-05 10:53:00
6:53 AM,36.0,21.9,57,30.12,10.0,WSW,8.1,16.1,N/A,,Mostly Cloudy,240,2013-01-05 11:53:00
7:53 AM,36.0,21.9,57,30.16,10.0,WSW,12.7,18.4,N/A,,Mostly Cloudy,250,2013-01-05 12:53:00
8:53 AM,37.0,23.0,57,30.19,10.0,WSW,6.9,-,N/A,,Overcast,250,2013-01-05 13:53:00
9:53 AM,37.9,23.0,55,30.21,10.0,WSW,6.9,-,N/A,,Scattered Clouds,250,2013-01-05 14:53:00
10:53 AM,41.0,21.9,47,30.22,10.0,West,6.9,-,N/A,,Partly Cloudy,270,2013-01-05 15:53:00
11:53 AM,42.1,21.9,45,30.21,10.0,NW,12.7,25.3,N/A,,Scattered Clouds,310,2013-01-05 16:53:00
12:53 PM,43.0,21.9,43,30.19,10.0,NW,11.5,17.3,N/A,,Scattered Clouds,310,2013-01-05 17:53:00
1:53 PM,44.1,21.9,42,30.19,10.0,Variable,6.9,-,N/A,,Mostly Cloudy,0,2013-01-05 18:53:00
2:53 PM,44.1,21.0,40,30.21,10.0,WNW,6.9,-,N/A,,Clear,300,2013-01-05 19:53:00
3:53 PM,42.1,24.1,49,30.21,10.0,West,4.6,-,N/A,,Clear,280,2013-01-05 20:53:00
4:53 PM,41.0,24.1,51,30.23,10.0,Calm,Calm,-,N/A,,Clear,0,2013-01-05 21:53:00
5:53 PM,39.2,23.0,52,30.25,10.0,Calm,Calm,-,N/A,,Clear,0,2013-01-05 22:53:00
6:53 PM,32.0,19.9,61,30.27,10.0,Calm,Calm,-,N/A,,Clear,0,2013-01-05 23:53:00
7:53 PM,28.0,19.0,69,30.26,10.0,Calm,Calm,-,N/A,,Clear,0,2013-01-06 00:53:00
8:53 PM,25.0,19.0,78,30.25,10.0,Calm,Calm,-,N/A,,Clear,0,2013-01-06 01:53:00
9:53 PM,26.1,21.0,81,30.24,8.0,Calm,Calm,-,N/A,,Clear,0,2013-01-06 02:53:00
10:53 PM,27.0,21.9,81,30.23,10.0,Calm,Calm,-,N/A,,Clear,0,2013-01-06 03:53:00
11:53 PM,30.0,25.0,82,30.20,10.0,Calm,Calm,-,N/A,,Clear,0,2013-01-06 04:53:00